Probability
0 0 0 0 0 0 0 0 0 0 0 0 0 0 0 0 0 0 0 0 0 0 0 0 0 0 0 0 0 0 0 0 0 0 0 0 0 0 0 0 0 0 0 0
0 0 0 0 0 0 0 0 0 0 0 0 0 0 0 0 0 0 0 0 0 0 0 0 0 0 0 0 0 0 0 0 0 0 0 0 0 0 0 0 0 0 0 0
0 0 0 0 0 0 0 0 0 0 0 0 0 0 0 0 0 0 0 0 0 0 0 0 0 0 0 0 0 0 0 0 0 0 0 0 0 0 0 0 0 0 0 0
0 0 0 0 0 0 0 0 0 0 0 0 0 0 0 0 0 0 0 0 0 0 0 0 0 0 0 0 0 0 0 0 0 0 0 0 0 0 0 0 0 0 0 0
0 0 0 0 0 0 0 0 0 0 0 0 0 0 0 0 0 0 0 0 0 0 0 0 0 0 0 0 0 0 0 0 0 0 0 0 0 0 0 0 0 0 0 0
0 0 0 0 0 0 0 0 0 0 0 0 0 0 0 0 0 0 0 0 0 0 0 0 0 0 0 0 0 0 0 0 0 0 0 0 0 0 0 0 0 0 0 0
0 0 0 0 0 0 0 0 0 0 0 0 0 0 0 0 0 0 0 0 0 0 0 0 0 0 0 0 0 0 0 0 0 0 0 0 0 0 0 0 0 0 0 0
0 0 0 0 0 0 0 0 0 0 0 0 0 0 0 0 0 0 0 0 0 0 0 0 0 0 0 0 0 0 0 0 0 0 0 0 0 0 0 0 0 0 0 0
0 0 0 0 0 0 0 0 0 0 0 0 0 0 0 0 0 0 0 0 0 0 0 0 0 0 0 0 0 0 0 0 0 0 0 0 0 0 0 0 0 0 0 0
0 0 0 0 0 0 0 0 0 0 0 0 0 0 0 0 0 0 0 0 0 0 0 0 0 0 0 0 0 0 0 0 0 0 0 0 0 0 0 0 0 0 0 0
0 0 0 0 0 0 0 0 0 0 0 0 0 0 0 0 0 0 0 0 0 0 0 0 0 0 0 0 0 0 0 0 0 0 0 0 0 0 0 0 0 0 0 0
0 0 0 0 0 0 0 0 0 0 0 0 0 0 0 0 0 0 0 0 0 0 0 0 0 0 0 0 0 0 0 0 0 0 0 0 0 0 0 0 0 0 0 0
0 0 0 0 0 0 0 0 0 0 0 0 0 0 0 0 0 0 0 0 0 0 0 0 0 0 0 0 0 0 0 0 0 0 0 0 0 0 0 0 0 0 0 0
0 0 0 0 0 0 0 0 0 0 0 0 0 0 0 0 0 0 0 0 0 0 0 0 0 0 0 0 0 0 0 0 0 0 0 0 0 0 0 0 0 0 0 0
0 0 0 0 0 0 0 0 0 0 0 0 0 0 0 0 0 0 0 0 0 0 0 0 0 0 0 0 0 0 0 0 0 0 0 0 0 0 0 0 0 0 0 0
0 0 0 0 0 0 0 0 0 0 0 0 0 0 0 0 0 0 0 0 0 0 0 0 0 0 0 0 0 0 0 0 0 0 0 0 0 0 0 0 0 0 0 0
0 0 0 0 0 0 0 0 0 0 0 0 0 0 0 0 0 0 0 0 0 0 0 0 0 0 0 0 0 0 0 0 0 0 0 0 0 0 0 0 0 0 0 0
0 0 0 0 0 0 0 0 0 0 0 0 0 0 0 0 0 0 0 0 0 0 0 0 0 0 0 0 0 0 0 0 0 0 0 0 0 0 0 0 0 0 0 0
0 0 0 0 0 0 0 0 0 0 0 0 0 0 0 0 0 0 0 0 0 0 0 0 0 0 0 0 0 0 0 0 0 0 0 0 0 0 0 0 0 0 0 0
0 0 0 0 0 0 0 0 0 0 0 0 0 0 0 0 0 0 0 0 0 0 0 0 0 0 0 0 0 0 0 0 0 0 0 0 0 0 0 0 0 0 0 0
0 0 0 0 0 0 0 0 0 0 0 0 0 0 0 0 0 0 0 0 0 0 0 0 0 0 0 0 0 0 0 0 0 0 0 0 0 0 0 0 0 0 0 0
0 0 0 0 0 0 0 0 0 0 0 0 0 0 0 0 0 0 0 0 0 0 0 0 0 0 0 0 0 0 0 0 0 0 0 0 0 0 0 0 0 0 0 0
0 0 0 0 0 0 0 0 0 0 0 0 0 0 0 0 0 0 0 0 0 0 0 0 0 0 0 0 0 0 0 0 0 0 0 0 0 0 0 0 0 0 0 0
0 0 0 0 0 0 0 0 0 0 0 0 0 0 0 0 0 0 0 0 0 0 0 0 0 0 0 0 0 0 0 0 0 0 0 0 0 0 0 0 0 0 0 0
0 0 0 0 0 0 0 0 0 0 0 0 0 0 0 0 0 0 0 0 0 0 0 0 0 0 0 0 0 0 0 0 0 0 0 0 0 0 0 0 0 0 0 0
0 0 0 0 0 0 0 0 0 0 0 0 0 0 0 0 0 0 0 0 0 0 0 0 0 0 0 0 0 0 0 0 0 0 0 0 0 0 0 0 0 0 0 0
Wind_Speed
4 7 12 16 17 7 5 7 9 5 1 5 9 10 9 7 7 8 7 6 6 4 3 4 5 6 6 7 7 7 8 7 6 5 7 8 9 9 10 10 13 13 13 13
5 14 13 5 8 7 7 9 11 5 2 4 8 13 9 8 8 7 8 8 8 7 6 5 6 6 7 8 8 8 8 8 8 7 7 7 9 9 9 9 12 14 14 13
15 4 6 9 8 11 13 15 15 8 2 3 5 12 13 8 5 5 7 8 8 9 8 7 6 6 7 8 7 7 8 9 10 10 9 9 8 8 8 10 10 12 13 14
14 5 7 9 11 14 13 11 12 9 7 8 6 10 8 8 9 9 10 11 11 10 8 7 6 6 7 7 7 8 9 10 9 8 8 10 9 9 8 8 9 11 12 13
11 8 10 12 11 14 6 3 6 7 9 9 8 11 8 6 10 13 15 14 13 11 10 8 6 6 6 6 6 7 9 10 10 10 11 13 12 11 9 9 10 10 10 11
4 4 7 7 2 7 10 8 5 2 5 12 14 14 10 9 10 9 16 17 16 13 11 9 7 6 6 6 7 7 10 11 10 11 11 13 14 12 11 10 9 8 7 8
9 8 6 5 8 7 10 9 5 6 8 11 7 12 12 5 4 8 17 20 18 14 12 11 10 9 8 8 8 8 10 11 10 11 11 12 12 12 11 9 8 7 6 6
12 11 15 12 13 13 16 15 11 10 9 6 6 12 7 2 3 3 11 17 17 16 14 13 12 11 10 9 9 9 10 11 10 10 10 10 10 8 7 8 7 7 5 5
13 9 4 8 4 12 12 13 6 3 2 4 9 7 7 4 5 6 12 17 19 18 17 15 13 12 11 11 10 11 11 11 10 10 10 9 9 8 8 8 7 5 5 4
11 8 5 5 4 2 5 9 7 8 7 9 8 8 8 12 14 12 15 19 20 19 17 16 14 13 12 11 11 10 11 11 11 10 9 7 8 8 8 7 7 6 5 4
10 9 5 6 15 17 11 10 9 9 6 8 8 8 6 10 14 17 18 19 21 21 20 17 15 14 13 12 12 11 11 11 11 10 9 9 8 8 7 6 6 5 5 4
10 6 7 10 3 5 12 14 15 11 9 7 7 5 3 4 7 12 15 16 19 20 19 18 16 15 14 14 14 13 12 12 11 10 9 9 8 8 7 6 6 5 4 3
13 9 5 4 6 7 11 13 14 7 6 9 10 6 4 3 6 9 12 15 17 19 19 17 16 16 16 16 15 14 14 13 12 11 10 9 9 8 8 7 6 5 4 3
11 11 15 18 9 14 14 16 18 14 12 13 16 10 7 9 10 11 13 15 17 19 19 18 17 17 16 16 16 16 15 13 12 11 11 11 10 9 8 7 6 5 4 4
11 13 17 16 6 9 14 21 25 27 25 18 17 19 16 16 15 14 13 14 16 17 19 20 18 17 16 16 16 16 15 14 13 12 12 11 10 8 8 7 6 6 5 4
11 9 8 11 11 9 11 20 26 27 25 26 21 18 8 12 10 11 12 15 17 18 19 18 17 16 16 17 16 16 16 15 13 13 12 10 9 8 8 8 7 6 5 4
12 10 10 11 7 4 20 22 21 20 20 20 26 18 8 10 14 16 16 16 17 17 16 16 16 15 15 16 16 17 16 13 11 11 9 9 9 9 9 8 7 7 6 5
15 11 7 5 9 19 14 4 19 22 19 17 10 5 11 12 10 8 11 14 14 12 11 12 11 12 12 12 13 13 11 11 11 11 10 10 10 10 9 9 8 7 6 6
8 11 7 7 10 13 5 5 11 16 17 15 13 7 6 6 5 4 7 9 9 10 9 9 9 9 9 11 11 10 10 10 11 11 11 11 11 11 10 10 9 8 7 6
3 6 7 8 9 14 6 6 5 7 9 8 13 12 11 11 8 8 9 9 8 7 6 6 7 7 8 9 9 10 11 11 12 13 12 11 11 11 11 11 9 7 6 6
9 9 13 12 12 10 2 6 9 11 8 5 11 12 14 14 7 4 9 9 8 7 6 6 7 7 8 8 9 10 10 13 12 9 8 9 10 10 10 8 7 7 6 5
15 13 12 10 12 12 10 11 12 4 3 5 8 10 12 9 6 7 9 8 8 7 6 6 6 7 6 8 10 10 12 11 7 8 9 9 9 8 7 8 7 6 6 6
10 9 7 9 6 3 11 7 3 3 5 6 8 9 11 10 10 9 8 8 7 7 6 6 7 6 5 7 9 12 10 6 7 8 8 8 8 7 7 8 8 6 6 6
5 0 3 3 2 2 5 3 4 5 5 6 7 9 11 10 11 9 7 7 6 6 6 6 6 7 7 7 9 10 5 6 8 8 8 8 8 8 7 6 6 6 7 6
6 8 5 3 2 3 5 9 9 7 3 4 4 6 10 10 8 9 7 7 7 7 6 6 7 9 9 7 7 6 5 7 8 8 7 8 7 7 7 7 7 8 7 7
7 10 9 7 9 8 9 12 12 10 9 8 7 6 5 8 9 8 8 7 7 7 6 6 8 8 7 5 5 5 6 7 8 8 8 7 6 6 6 6 6 12 12 13
Wind_Direction
161 194 213 211 212 234 214 216 234 230 179 228 238 242 206 186 202 200 190 179 163 130 88 62 54 52 58 60 65 71 78 82 92 91 87 81 71 64 60 54 49 49 49 49
165 226 230 203 200 202 208 228 243 243 207 243 257 258 242 206 215 213 196 181 166 149 132 96 76 69 66 66 68 71 74 78 81 87 88 86 91 76 70 64 56 52 53 52
208 210 178 164 178 205 222 231 239 235 154 220 272 259 234 204 198 198 195 180 170 160 145 125 98 81 76 68 64 72 77 80 85 96 102 107 98 89 74 64 60 52 54 57
230 187 152 184 202 203 228 226 237 226 231 244 224 270 231 201 206 203 192 186 176 165 154 139 123 100 83 74 77 82 84 84 87 95 103 104 100 94 85 80 75 65 57 57
215 186 186 207 212 200 220 143 195 218 235 251 219 253 251 185 227 210 193 187 178 170 162 151 135 116 99 91 91 95 94 90 92 97 101 101 99 101 101 95 84 75 64 58
235 187 215 221 147 171 133 109 94 134 214 247 222 228 251 210 219 189 182 184 179 171 166 155 143 135 122 114 108 109 105 98 99 101 103 107 111 114 111 103 96 84 75 65
223 218 205 160 131 149 174 166 189 208 216 239 180 221 245 216 180 176 180 180 176 172 170 167 164 159 149 140 130 125 119 111 110 109 109 111 114 114 111 108 101 97 85 72
204 223 197 190 189 178 195 198 200 211 221 214 181 229 245 110 126 155 174 172 171 175 178 177 174 169 163 157 151 144 135 128 127 122 118 117 115 111 109 108 107 100 93 83
202 221 151 189 196 172 180 214 214 149 81 254 223 239 263 170 186 173 171 175 181 182 183 182 179 177 174 171 168 160 151 144 141 137 132 129 127 125 123 120 113 106 103 99
198 209 170 153 137 233 211 171 160 198 204 231 236 226 218 196 203 186 184 188 186 184 185 185 184 184 182 179 173 170 165 158 154 152 147 144 141 138 137 134 127 121 115 108
200 202 167 180 201 193 172 185 202 199 213 213 239 230 209 200 190 189 193 191 187 186 187 188 187 187 184 181 180 179 176 169 167 166 161 157 155 153 149 143 139 135 129 120
190 194 207 212 204 256 213 202 191 193 209 217 243 244 125 198 193 192 189 187 188 189 190 190 188 185 186 187 187 186 184 182 179 174 171 169 165 165 164 158 154 152 146 135
158 168 188 212 206 195 218 215 214 218 186 202 219 232 136 202 200 196 189 185 186 190 191 191 191 192 193 192 191 191 191 189 184 180 180 179 179 180 178 172 167 165 161 155
156 185 209 218 204 183 199 207 205 201 218 225 229 226 199 205 201 195 193 189 187 191 193 195 197 198 197 195 195 194 195 193 188 187 190 192 192 189 184 177 173 173 174 177
170 213 226 240 224 188 201 204 204 212 221 228 232 227 212 202 201 194 188 183 187 192 197 200 201 200 198 198 199 198 198 194 192 194 199 202 196 187 179 176 176 176 181 185
186 212 211 233 228 218 232 222 212 216 224 233 244 243 208 199 190 185 184 184 191 197 201 203 204 202 201 200 200 199 200 196 194 199 204 199 187 181 181 180 178 182 187 192
185 192 199 226 183 187 240 225 213 216 220 222 233 238 147 181 196 199 194 193 198 200 201 202 203 204 203 202 200 201 200 192 190 198 198 190 187 187 187 183 185 193 196 199
183 187 201 173 160 221 237 205 207 217 222 216 221 182 176 195 197 202 196 195 199 198 199 201 201 203 203 201 200 200 191 185 190 197 199 194 192 192 186 187 196 199 198 204
184 184 189 177 214 242 253 201 189 202 226 213 211 182 143 116 117 215 206 198 195 193 193 194 195 194 191 194 192 183 183 186 192 201 203 198 193 191 188 195 200 198 199 208
193 184 194 191 211 229 230 154 168 154 231 203 198 185 155 149 197 218 182 187 190 183 181 180 174 175 187 190 176 178 187 190 202 208 205 195 190 190 194 197 194 192 198 210
183 201 216 215 228 243 136 151 155 179 225 176 185 178 170 190 210 142 152 169 177 179 179 171 169 182 193 176 170 187 193 206 211 200 186 184 188 191 191 185 184 184 197 210
184 191 206 211 224 230 147 159 182 178 113 151 169 174 180 183 140 142 157 165 170 175 177 175 183 201 195 173 179 197 211 214 191 175 181 184 182 179 175 175 179 187 197 211
207 197 194 203 216 82 162 168 144 154 165 177 174 178 174 168 170 169 172 176 181 187 190 187 195 209 203 186 192 208 218 187 165 173 183 177 171 174 172 179 183 190 200 219
225 187 168 199 206 154 168 122 178 200 201 189 177 168 170 173 176 179 180 183 190 196 198 191 192 211 220 204 205 219 200 153 164 182 182 174 176 182 183 193 196 200 204 213
183 166 168 180 118 128 217 215 207 202 184 156 154 165 179 176 178 182 188 195 200 203 198 190 200 215 224 210 207 204 168 159 177 184 182 184 190 193 191 202 209 210 217 218
179 170 168 188 181 177 206 212 199 196 199 188 176 179 188 191 194 192 199 203 203 205 197 198 208 218 222 200 194 177 166 170 177 183 188 189 192 193 200 207 224 234 236 238